Tracking 25744 objects as of 24-Jun-2022
HD Live streaming from Space Station
objects crossing your sky now

AEROCUBE 4.5B

Track AEROCUBE 4.5B now!
10-day predictions
AEROCUBE 4.5B is classified as:


NORAD ID: 38768
Int'l Code: 2012-048L
Perigee: 461.9 km
Apogee: 688.5 km
Inclination: 64.7 °
Period: 96.0 minutes
Semi major axis: 6946 km
RCS: Unknown
Launch date: September 13, 2012
Source: United States (US)
Launch site: AIR FORCE WESTERN TEST RANGE (AFWTR)
aabbcc
Your satellite tracking list
Your tracking list is empty




NASA's NSSDC Master Catalog

Two Line Element Set (TLE):
1 38768U 12048L   22175.53570310  .00002701  00000-0  17801-3 0  9998
2 38768  64.6674  43.0041 0163083 256.0041 102.2896 14.99621824152213
Source of the keplerian elements: AFSPC